Jilin-1 GaoFen 06A 10 xing

operational
NORAD ID: 57021 Int'l Des: NNA 2023-085 Owner: CGSTL Country: CN Constellation: jilin-1
LEOCIRCULARRETROGRADE

Jilin-1 GaoFen 06A 10 xingについて

説明を読み込み中...

リアルタイム位置

3D地球を読み込み中...

次回通過

高度履歴

Altitude vs Time

uPlot chart will show altitude changes over time

軌道要素

1 57021U 23085T 25298.48981966 .01357095 11339-2 19035-2 0 9999
2 57021 97.4592 60.5441 0004632 289.4013 70.6767 16.06091479131994
Epoch: Oct 25, 2025 • Age: 7 hours

現在のステータス

高度 264.1 km
速度 7.75 km/s
衛星直下点 -24.03°S, 75.6°W
打ち上げ日 Jun 15, 2023
運用期間 2.3 years
タイプ other

技術仕様

分類 Payload
質量 42.00 kg
乾燥質量 42.00 kg
総質量 42.00 kg
長さ 1.50 m
直径 1.00 m
スパン 1.50 m
形状 Box
製造者 CGSTL
バスタイプ JL-1
フェーズステータス In Orbit
所有者/国 CGSTL/CN

大規模コンステレーション

Loading constellations...